Orlando, FL

11:11 PM EST on February 21, 2017 (GMT -0500)
Executive

Weather History for KORL - May, 2013

Change the Weather History Date:

Sunday, May 19, 2013

  Actual Average Record
Temperature  
Mean Temperature 76 °F -  
Max Temperature 88 °F 86 °F 91 °F (2000)
Min Temperature 69 °F 66 °F 64 °F (2000)
Cooling Degree Days 12    
Growing Degree Days 26 (Base 50)    
Moisture  
Dew Point 70 °F    
Average Humidity 82    
Maximum Humidity 94    
Minimum Humidity 57    
Precipitation  
Precipitation 0.71 in - - ()
Sea Level Pressure  
Sea Level Pressure 30.07 in    
Wind  
Wind Speed 7 mph (SE)    
Max Wind Speed 24 mph    
Max Gust Speed 32 mph    
Visibility 9 miles    
Events Fog , Rain , Thunderstorm    
Averages and records for this station are not official NWS values.
T = Trace of Precipitation, MM = Missing Value Source: NWS Daily Summary

Daily Weather History Graph

Daily Weather History Graph

Search for Another Location

Airport or City:

Trip Planner

Search our weather history database for the weather conditions in past years. The results will help you decide how hot, cold, wet, or windy it might be!

Date:

Astronomy

May. 19, 2013 Rise Set
Actual Time 6:32 AM EDT 8:11 PM EDT
Civil Twilight 6:06 AM EDT 8:37 PM EDT
Nautical Twilight 5:35 AM EDT 9:08 PM EDT
Astronomical Twilight 5:02 AM EDT 9:41 PM EDT
Moon 2:41 PM EDT (5/19) 2:25 AM EDT (5/19)
Length of Visible Light 14h 31m
Length of Day
13h 39m
Waxing Gibbous, 65% of the Moon is Illuminated
May 19
Waxing Gibbous
May 25
Full
May 31
Last Quarter
Jun 8
New
Jun 16
First Quarter

Hourly Weather History & Observations

Time (EDT) Temp. Heat Index Dew Point Humidity Pressure Visibility Wind Dir Wind Speed Gust Speed Precip Events Conditions
12:11 AM 75.2 °F - 69.8 °F 83% 30.10 in 10.0 mi SE 6.9 mph - N/A   Overcast
12:53 AM 75.0 °F - 70.0 °F 84% 30.10 in 10.0 mi SSE 11.5 mph - N/A   Overcast
1:53 AM 75.0 °F - 70.0 °F 84% 30.07 in 10.0 mi SSE 8.1 mph - N/A   Partly Cloudy
2:53 AM 73.9 °F - 70.0 °F 87% 30.07 in 10.0 mi South 6.9 mph - N/A   Clear
3:53 AM 73.9 °F - 70.0 °F 87% 30.06 in 10.0 mi SSE 4.6 mph - N/A   Clear
4:53 AM 73.0 °F - 70.0 °F 90% 30.06 in 10.0 mi ESE 3.5 mph - N/A   Scattered Clouds
5:30 AM 73.4 °F - 69.8 °F 88% 30.05 in 10.0 mi Calm Calm - N/A Thunderstorm Mostly Cloudy
5:45 AM 73.4 °F - 69.8 °F 88% 30.06 in 10.0 mi Calm Calm - N/A   Mostly Cloudy
5:53 AM 73.9 °F - 70.0 °F 87% 30.07 in 10.0 mi North 3.5 mph - N/A   Overcast
6:02 AM 73.4 °F - 69.8 °F 88% 30.06 in 10.0 mi North 3.5 mph - N/A   Overcast
6:53 AM 72.0 °F - 70.0 °F 93% 30.09 in 10.0 mi ESE 3.5 mph - 0.00 in   Mostly Cloudy
8:53 AM 75.0 °F - 71.1 °F 87% 30.12 in 10.0 mi ESE 9.2 mph - N/A   Clear
9:53 AM 79.0 °F - 71.1 °F 77% 30.12 in 10.0 mi SSE 10.4 mph - N/A   Mostly Cloudy
10:29 AM 80.6 °F 83.9 °F 69.8 °F 70% 30.11 in 10.0 mi SSE 9.2 mph - N/A   Scattered Clouds
10:53 AM 82.9 °F 86.5 °F 69.1 °F 63% 30.11 in 10.0 mi South 10.4 mph 18.4 mph N/A   Partly Cloudy
11:34 AM 82.4 °F 86.3 °F 69.8 °F 66% 30.10 in 10.0 mi South 5.8 mph - N/A   Mostly Cloudy
11:53 AM 82.9 °F 86.5 °F 69.1 °F 63% 30.11 in 10.0 mi South 4.6 mph - N/A   Mostly Cloudy
12:53 PM 84.9 °F 88.8 °F 69.1 °F 59% 30.09 in 10.0 mi South 5.8 mph - N/A   Scattered Clouds
1:53 PM 84.9 °F 88.2 °F 68.0 °F 57% 30.06 in 10.0 mi South 4.6 mph - N/A   Mostly Cloudy
3:29 PM 82.4 °F 87.2 °F 71.6 °F 70% 30.02 in 10.0 mi SE 19.6 mph - N/A Thunderstorm Thunderstorm
3:36 PM 77.0 °F - 69.8 °F 78% 30.02 in 10.0 mi SSE 24.2 mph 32.2 mph N/A Thunderstorm Thunderstorm
4:00 PM 71.6 °F - 68.0 °F 88% 30.06 in 0.2 mi WSW 10.4 mph - 0.37 in Fog , Rain , Thunderstorm Heavy Thunderstorms and Rain
4:11 PM 69.8 °F - 68.0 °F 94% 30.06 in 0.8 mi South 3.5 mph - 0.53 in Rain , Thunderstorm Heavy Thunderstorms and Rain
4:18 PM 69.8 °F - 68.0 °F 94% 30.06 in 1.8 mi ESE 4.6 mph - 0.63 in Rain , Thunderstorm Heavy Thunderstorms and Rain
4:29 PM 71.6 °F - 68.0 °F 88% 30.04 in 3.0 mi ESE 6.9 mph - 0.69 in Rain , Thunderstorm Heavy Thunderstorms and Rain
4:53 PM 73.0 °F - 70.0 °F 90% 30.03 in 10.0 mi East 9.2 mph - 0.71 in Rain , Thunderstorm Light Thunderstorms and Rain
5:49 PM 75.2 °F - 69.8 °F 83% 30.04 in 10.0 mi ESE 8.1 mph - 0.00 in   Partly Cloudy
5:53 PM 75.0 °F - 70.0 °F 84% 30.05 in 10.0 mi ESE 8.1 mph - 0.00 in   Clear
6:53 PM 75.9 °F - 72.0 °F 87% 30.04 in 10.0 mi East 6.9 mph - N/A   Clear
7:53 PM 75.9 °F - 69.1 °F 79% 30.05 in 10.0 mi ESE 9.2 mph - N/A   Partly Cloudy
8:53 PM 73.9 °F - 69.1 °F 85% 30.07 in 10.0 mi SSE 4.6 mph - N/A   Clear
9:53 PM 73.0 °F - 69.1 °F 87% 30.10 in 10.0 mi SE 4.6 mph - N/A   Clear
10:53 PM 73.9 °F - 70.0 °F 87% 30.12 in 10.0 mi ESE 6.9 mph - N/A   Overcast
11:53 PM 73.0 °F - 69.1 °F 87% 30.12 in 10.0 mi SE 4.6 mph - N/A   Clear